EW4685 Weather Reports


Display with metric or nautical units.
time (UTC)temp
F
wind
direction
speed
MPH
gust
MPH
rain 1hr
in
rain 24hr
in
rain mn
in
humidity
%
barometer
mb
20260901100421 56 341 0.0 4.0 0.00 0.00 0.00 72 1018.5
20260901095920 56 50 0.0 4.0 0.00 0.00 0.00 72 1018.5
20260901095421 56 324 1.0 6.0 0.00 0.00 0.00 71 1018.6
20260901094921 57 299 1.0 6.0 0.00 0.00 0.00 71 1018.6
20260901094421 57 357 1.0 4.0 0.00 0.00 0.00 70 1018.5
20260901093921 57 297 1.0 4.0 0.00 0.00 0.00 69 1018.5
20260901093421 57 2 1.0 5.0 0.00 0.00 0.00 68 1018.5
20260901092921 58 329 2.0 5.0 0.00 0.00 0.00 68 1018.4
20260901092420 58 309 2.0 5.0 0.00 0.00 0.00 68 1018.4
20260901092147 58 324 1.0 5.0 0.00 0.00 0.00 68 1018.4
20260901091420 58 0 1.0 4.0 0.00 0.00 0.00 67 1018.5
20260901091143 58 28 0.0 4.0 0.00 0.00 0.00 67 1018.6
20260901090420 58 14 1.0 5.0 0.00 0.00 0.00 66 1018.5
20260901085920 58 296 1.0 5.0 0.00 0.00 0.00 65 1018.7
20260901085414 58 23 1.0 5.0 0.00 0.00 0.00 64 1018.8
20260901084914 59 349 2.0 10.0 0.00 0.00 0.00 64 1018.7
20260901084413 59 18 2.0 10.0 0.00 0.00 0.00 64 1018.8
20260901083912 59 7 1.0 6.0 0.00 0.00 0.00 63 1018.9
20260901083413 59 59 2.0 6.0 0.00 0.00 0.00 63 1018.9
20260901083145 60 300 2.0 5.0 0.00 0.00 0.00 62 1018.9
20260901082410 60 22 2.0 9.0 0.00 0.00 0.00 61 1018.8
20260901081911 60 324 2.0 9.0 0.00 0.00 0.00 61 1018.8
20260901081410 60 261 3.0 8.0 0.00 0.00 0.00 60 1018.7
20260901081129 60 346 2.0 8.0 0.00 0.00 0.00 60 1018.6
20260901080407 60 22 2.0 7.0 0.00 0.00 0.00 59 1018.6
20260901075905 60 291 2.0 7.0 0.00 0.00 0.00 59 1018.6
20260901075404 61 357 1.0 6.0 0.00 0.00 0.00 59 1018.6
20260901074904 61 297 1.0 7.0 0.00 0.00 0.00 59 1018.6
20260901074405 61 324 2.0 7.0 0.00 0.00 0.00 58 1018.6
20260901073904 62 302 1.0 7.0 0.00 0.00 0.00 57 1018.6
20260901073402 62 1 1.0 7.0 0.00 0.00 0.00 57 1018.6
20260901072902 62 356 2.0 8.0 0.00 0.00 0.00 55 1018.7
20260901072402 63 292 1.0 8.0 0.00 0.00 0.00 53 1018.7
20260901071855 64 344 1.0 4.0 0.00 0.00 0.00 53 1018.8
20260901071350 64 300 1.0 7.0 0.00 0.00 0.00 52 1018.8
20260901070844 64 279 1.0 7.0 0.00 0.00 0.00 52 1018.7
20260901070555 64 330 2.0 8.0 0.00 0.00 0.00 52 1018.8
20260901065832 64 348 3.0 10.0 0.00 0.00 0.00 51 1018.8
20260901065326 64 258 3.0 10.0 0.00 0.00 0.00 50 1018.8
20260901064820 65 346 3.0 12.0 0.00 0.00 0.00 50 1018.8
20260901064314 65 256 4.0 12.0 0.00 0.00 0.00 51 1018.8
20260901063807 65 323 4.0 11.0 0.00 0.00 0.00 50 1018.9
20260901063301 65 277 4.0 11.0 0.00 0.00 0.00 51 1018.9
20260901062755 65 332 3.0 11.0 0.00 0.00 0.00 49 1018.9
20260901062250 65 344 3.0 10.0 0.00 0.00 0.00 50 1018.9
20260901061743 65 258 3.0 12.0 0.00 0.00 0.00 50 1018.9
20260901061458 65 267 3.0 12.0 0.00 0.00 0.00 49 1018.9
20260901060957 66 297 3.0 11.0 0.00 0.00 0.00 49 1019.0
20260901060226 66 238 4.0 11.0 0.00 0.00 0.00 48 1018.9
20260901055720 66 312 4.0 11.0 0.00 0.00 0.00 47 1019.0
20260901055213 66 68 4.0 10.0 0.00 0.00 0.00 45 1019.1
20260901054933 67 313 3.0 14.0 0.00 0.00 0.00 45 1019.0
20260901054202 67 223 3.0 14.0 0.00 0.00 0.00 44 1019.0
20260901053656 67 282 3.0 12.0 0.00 0.00 0.00 45 1018.9
20260901053626 67 258 4.0 12.0 0.00 0.00 0.00 44 1019.0
20260901052644 66 23 4.0 11.0 0.00 0.00 0.00 45 1019.0
20260901052138 67 261 4.0 13.0 0.00 0.00 0.00 44 1019.1
20260901051632 67 244 4.0 13.0 0.00 0.00 0.00 43 1019.1
20260901051128 67 251 4.0 13.0 0.00 0.00 0.00 43 1019.3
20260901050841 67 256 4.0 14.0 0.00 0.00 0.00 43 1019.3
20260901050113 67 197 4.0 14.0 0.00 0.00 0.00 43 1019.3
20260901045607 67 297 4.0 11.0 0.00 0.00 0.00 42 1019.3
20260901045102 67 277 5.0 16.0 0.00 0.00 0.00 43 1019.3
20260901044556 67 292 5.0 16.0 0.00 0.00 0.00 41 1019.3
20260901044050 67 59 4.0 13.0 0.00 0.00 0.00 42 1019.5
20260901043544 67 277 5.0 11.0 0.00 0.00 0.00 41 1019.3
20260901043044 67 327 5.0 19.0 0.00 0.00 0.00 42 1019.3
20260901042806 67 242 5.0 19.0 0.00 0.00 0.00 43 1019.4
20260901042042 67 283 5.0 17.0 0.00 0.00 0.00 41 1019.5
20260901041542 67 288 5.0 13.0 0.00 0.00 0.00 41 1019.5
20260901041524 67 294 4.0 13.0 0.00 0.00 0.00 41 1019.5
20260901040540 67 254 4.0 9.0 0.00 0.00 0.00 41 1019.6
20260901040040 67 248 5.0 14.0 0.00 0.00 0.00 41 1019.7
20260901035538 67 246 5.0 14.0 0.00 0.00 0.00 40 1019.6
20260901035040 67 230 5.0 14.0 0.00 0.00 0.00 41 1019.7
20260901034538 67 333 5.0 14.0 0.00 0.00 0.00 40 1019.7
20260901034036 67 228 5.0 13.0 0.00 0.00 0.00 41 1019.9
20260901033537 67 313 5.0 14.0 0.00 0.00 0.00 40 1020.1
20260901033036 67 306 5.0 14.0 0.00 0.00 0.00 40 1020.2
20260901032536 67 78 4.0 14.0 0.00 0.00 0.00 41 1020.3
20260901032036 67 243 4.0 14.0 0.00 0.00 0.00 41 1020.4
20260901031758 66 301 5.0 12.0 0.00 0.00 0.00 41 1020.5
20260901031036 66 262 5.0 14.0 0.00 0.00 0.00 42 1020.5
20260901030535 66 254 6.0 17.0 0.00 0.00 0.00 41 1020.6
20260901030036 66 347 7.0 17.0 0.00 0.00 0.00 42 1020.6
20260901025536 66 253 6.0 17.0 0.00 0.00 0.00 40 1020.7
20260901025258 66 261 5.0 13.0 0.00 0.00 0.00 44 1020.7
20260901024537 66 353 5.0 14.0 0.00 0.00 0.00 45 1020.8
20260901024036 66 306 5.0 14.0 0.00 0.00 0.00 44 1020.9
20260901023536 66 28 5.0 12.0 0.00 0.00 0.00 45 1021.0
20260901023036 66 38 4.0 14.0 0.00 0.00 0.00 45 1021.0
20260901022536 66 332 5.0 14.0 0.00 0.00 0.00 43 1021.1
20260901022033 66 250 5.0 13.0 0.00 0.00 0.00 43 1021.2
20260901021536 66 273 4.0 13.0 0.00 0.00 0.00 42 1021.4
20260901021033 66 318 4.0 10.0 0.00 0.00 0.00 44 1021.5
20260901020532 66 348 4.0 10.0 0.00 0.00 0.00 45 1021.7
20260901020032 66 258 5.0 12.0 0.00 0.00 0.00 45 1021.8
20260901020018 66 306 4.0 18.0 0.00 0.00 0.00 46 1022.0
20260901015034 66 355 4.0 18.0 0.00 0.00 0.00 47 1022.0
20260901014528 65 217 4.0 14.0 0.00 0.00 0.00 45 1022.1
20260901014033 65 248 4.0 15.0 0.00 0.00 0.00 47 1022.1
20260901013533 64 17 5.0 15.0 0.00 0.00 0.00 48 1022.3
20260901013033 64 346 6.0 19.0 0.00 0.00 0.00 49 1022.4
20260901012750 64 329 5.0 19.0 0.00 0.00 0.00 49 1022.5
20260901012033 65 322 4.0 13.0 0.00 0.00 0.00 51 1022.5
20260901011528 64 289 4.0 11.0 0.00 0.00 0.00 54 1022.7
20260901011031 64 335 4.0 11.0 0.00 0.00 0.00 54 1022.8
20260901010539 64 20 3.0 10.0 0.00 0.00 0.00 57 1023.0
20260901010532 64 327 4.0 11.0 0.00 0.00 0.00 56 1022.9
20260901005530 64 346 3.0 12.0 0.00 0.00 0.00 59 1023.1
20260901005301 63 295 3.0 12.0 0.00 0.00 0.00 61 1023.0
20260901004530 63 60 3.0 10.0 0.00 0.00 0.00 61 1023.2
20260901004030 62 358 3.0 8.0 0.00 0.00 0.00 62 1023.4
20260901003529 62 252 2.0 6.0 0.00 0.00 0.00 63 1023.4
20260901003250 61 3 2.0 9.0 0.00 0.00 0.00 64 1023.4
20260901002529 61 94 2.0 9.0 0.00 0.00 0.00 65 1023.5
20260901002029 60 62 2.0 5.0 0.00 0.00 0.00 66 1023.5
20260901001529 60 47 2.0 8.0 0.00 0.00 0.00 66 1023.7
20260901001028 60 46 2.0 8.0 0.00 0.00 0.00 66 1023.7
20260901000527 60 296 2.0 8.0 0.00 0.00 0.00 67 1023.8
20260901000030 59 332 3.0 8.0 0.00 0.00 0.00 67 1023.9
20260831235527 59 311 2.0 8.0 0.00 0.00 0.00 68 1024.0
20260831235023 59 293 2.0 8.0 0.00 0.00 0.00 69 1024.1
20260831234523 58 329 2.0 8.0 0.00 0.00 0.00 71 1024.2
20260831234025 58 17 1.0 6.0 0.00 0.00 0.00 70 1024.3
20260831233746 57 303 1.0 4.0 0.00 0.00 0.00 72 1024.4
20260831233024 57 297 1.0 4.0 0.00 0.00 0.00 72 1024.5
20260831232524 56 288 1.0 6.0 0.00 0.00 0.00 74 1024.6
20260831232025 56 319 1.0 6.0 0.00 0.00 0.00 73 1024.6
20260831231524 55 31 1.0 6.0 0.00 0.00 0.00 75 1024.6
20260831231016 55 41 1.0 6.0 0.00 0.00 0.00 75 1024.7
20260831230514 55 33 0.0 6.0 0.00 0.00 0.00 76 1024.9
20260831230223 54 87 0.0 2.0 0.00 0.00 0.00 78 1024.9
20260831225458 53 38 1.0 3.0 0.00 0.00 0.00 79 1025.1
20260831225212 53 307 1.0 4.0 0.00 0.00 0.00 80 1025.1
20260831224449 53 64 1.0 4.0 0.00 0.00 0.00 80 1025.1
20260831224258 52 59 1.0 3.0 0.00 0.00 0.00 81 1025.2
20260831222929 51 28 1.0 5.0 0.00 0.00 0.00 86 1025.2
20260831222423 50 314 0.0 2.0 0.00 0.00 0.00 88 1025.3
20260831222135 49 298 0.0 4.0 0.00 0.00 0.00 91 1025.3
20260831221411 48 76 0.0 4.0 0.00 0.00 0.00 94 1025.3
20260831220905 47 46 0.0 2.0 0.00 0.00 0.00 96 1025.3
20260831220358 45 46 0.0 0.0 0.00 0.00 0.00 96 1025.2
20260831215855 44 46 0.0 0.0 0.00 0.00 0.00 96 1025.2
20260831215349 43 46 0.0 1.0 0.00 0.00 0.00 96 1025.2
20260831214842 42 46 0.0 1.0 0.00 0.00 0.00 96 1025.3
20260831214335 42 46 0.0 1.0 0.00 0.00 0.00 96 1025.3
20260831214050 41 46 0.0 0.0 0.00 0.00 0.00 96 1025.4
20260831213548 41 46 0.0 0.0 0.00 0.00 0.00 96 1025.4
20260831212820 41 46 0.0 0.0 0.00 0.00 0.00 96 1025.4
20260831212320 40 46 0.0 0.0 0.00 0.00 0.00 96 1025.4
20260831211805 39 46 0.0 0.0 0.00 0.00 0.00 96 1025.4
20260831211259 39 46 0.0 0.0 0.00 0.00 0.00 96 1025.4
20260831210753 38 46 0.0 0.0 0.00 0.00 0.00 95 1025.3
20260831210248 38 46 0.0 0.0 0.00 0.00 0.00 95 1025.3
20260831205847 38 46 0.0 0.0 0.00 0.00 0.00 95 1025.3
20260831204729 38 46 0.0 0.0 0.00 0.00 0.00 95 1025.3
20260831204224 38 46 0.0 0.0 0.00 0.00 0.00 95 1025.3
20260831203718 38 46 0.0 0.0 0.00 0.00 0.00 95 1025.4
20260831203215 38 46 0.0 0.0 0.00 0.00 0.00 95 1025.3
20260831202705 38 46 0.0 0.0 0.00 0.00 0.00 95 1025.3
20260831202158 38 46 0.0 0.0 0.00 0.00 0.00 95 1025.4
20260831201654 38 46 0.0 0.0 0.00 0.00 0.00 95 1025.3
20260831201408 38 46 0.0 0.0 0.00 0.00 0.00 95 1025.3
20260831200643 38 46 0.0 0.0 0.00 0.00 0.00 95 1025.2
20260831200135 38 46 0.0 0.0 0.00 0.00 0.00 94 1025.2
20260831195629 38 46 0.0 0.0 0.00 0.00 0.00 95 1025.3
20260831195126 38 46 0.0 0.0 0.00 0.00 0.00 95 1025.3
20260831194618 38 46 0.0 0.0 0.00 0.00 0.00 95 1025.2
20260831194554 38 46 0.0 0.0 0.00 0.00 0.00 95 1025.2
20260831193829 38 46 0.0 0.0 0.00 0.00 0.00 95 1025.2
20260831193101 38 46 0.0 0.0 0.00 0.00 0.00 94 1025.2
20260831192553 39 46 0.0 0.0 0.00 0.00 0.00 95 1025.2
20260831192047 38 46 0.0 0.0 0.00 0.00 0.00 94 1025.2
20260831191543 38 46 0.0 0.0 0.00 0.00 0.00 94 1025.3
20260831191035 39 46 0.0 0.0 0.00 0.00 0.00 94 1025.4
20260831191019 39 46 0.0 0.0 0.00 0.00 0.00 94 1025.4
20260831190505 39 46 0.0 0.0 0.00 0.00 0.00 94 1025.5
20260831185517 39 46 0.0 0.0 0.00 0.00 0.00 94 1025.4
20260831185012 39 46 0.0 0.0 0.00 0.00 0.00 94 1025.4
20260831184505 39 46 0.0 0.0 0.00 0.00 0.00 94 1025.4
20260831183959 39 46 0.0 0.0 0.00 0.00 0.00 94 1025.5
20260831183454 39 46 0.0 0.0 0.00 0.00 0.00 94 1025.5
20260831182948 40 46 0.0 0.0 0.00 0.00 0.00 94 1025.6
20260831182441 40 46 0.0 0.0 0.00 0.00 0.00 94 1025.6
20260831181935 40 46 0.0 0.0 0.00 0.00 0.00 94 1025.6
20260831181429 40 46 0.0 0.0 0.00 0.00 0.00 94 1025.6
20260831180925 40 46 0.0 0.0 0.00 0.00 0.00 94 1025.7
20260831180416 40 46 0.0 0.0 0.00 0.00 0.00 94 1025.7
20260831175911 40 46 0.0 0.0 0.00 0.00 0.00 94 1025.8
20260831175405 40 46 0.0 0.0 0.00 0.00 0.00 94 1025.8
20260831174859 40 46 0.0 0.0 0.00 0.00 0.00 94 1025.8
20260831174355 40 46 0.0 0.0 0.00 0.00 0.00 94 1025.9
20260831173847 40 46 0.0 0.0 0.00 0.00 0.00 94 1025.9
20260831173342 40 46 0.0 0.0 0.00 0.00 0.00 94 1025.8
20260831172835 40 46 0.0 0.0 0.00 0.00 0.00 93 1025.9
20260831172329 40 46 0.0 0.0 0.00 0.00 0.00 93 1025.8
20260831171824 40 46 0.0 0.0 0.00 0.00 0.00 93 1025.9
20260831171317 40 46 0.0 0.0 0.00 0.00 0.00 93 1025.9
20260831170812 40 46 0.0 0.0 0.00 0.00 0.00 93 1025.9
20260831170305 41 46 0.0 0.0 0.00 0.00 0.00 93 1026.0
20260831165759 41 46 0.0 0.0 0.00 0.00 0.00 93 1026.0
20260831165253 41 46 0.0 0.0 0.00 0.00 0.00 93 1026.1
20260831164748 41 46 0.0 0.0 0.00 0.00 0.00 93 1026.1
20260831164242 41 46 0.0 0.0 0.00 0.00 0.00 93 1026.1
20260831163738 41 46 0.0 0.0 0.00 0.00 0.00 93 1026.3
20260831163239 41 46 0.0 0.0 0.00 0.00 0.00 93 1026.2
20260831163003 41 46 0.0 0.0 0.00 0.00 0.00 93 1026.3
20260831162234 42 46 0.0 0.0 0.00 0.00 0.00 93 1026.4
20260831161735 42 46 0.0 0.0 0.00 0.00 0.00 93 1026.4
20260831161235 42 46 0.0 0.0 0.00 0.00 0.00 92 1026.5
20260831160954 42 46 0.0 0.0 0.00 0.00 0.00 92 1026.5
20260831160232 42 46 0.0 0.0 0.00 0.00 0.00 92 1026.8
20260831155729 42 46 0.0 0.0 0.00 0.00 0.00 92 1026.6
20260831155459 42 46 0.0 0.0 0.00 0.00 0.00 91 1026.8
20260831154730 42 46 0.0 0.0 0.00 0.00 0.00 91 1026.9
20260831154229 42 46 0.0 0.0 0.00 0.00 0.00 91 1026.9
20260831153731 42 46 0.0 0.0 0.00 0.00 0.00 91 1027.0
20260831153227 42 46 0.0 0.0 0.00 0.00 0.00 91 1027.0
20260831152727 43 46 0.0 0.0 0.00 0.00 0.00 91 1027.1
20260831152227 43 46 0.0 0.0 0.00 0.00 0.00 91 1027.2
20260831151728 43 46 0.0 0.0 0.00 0.00 0.00 91 1027.2
20260831151227 43 46 0.0 0.0 0.00 0.00 0.00 90 1027.2
20260831150724 43 46 0.0 0.0 0.00 0.00 0.00 90 1027.3
20260831150223 43 46 0.0 0.0 0.00 0.00 0.00 90 1027.3
20260831145724 43 46 0.0 0.0 0.00 0.00 0.00 90 1027.3
20260831145224 44 46 0.0 0.0 0.00 0.00 0.00 90 1027.3
20260831144723 44 46 0.0 0.0 0.00 0.00 0.00 90 1027.3
20260831144224 44 46 0.0 0.0 0.00 0.00 0.00 90 1027.3
20260831143724 43 46 0.0 0.0 0.00 0.00 0.00 90 1027.3
20260831143444 44 46 0.0 0.0 0.00 0.00 0.00 89 1027.4
20260831142726 44 46 0.0 0.0 0.00 0.00 0.00 89 1027.4
20260831142223 44 46 0.0 0.0 0.00 0.00 0.00 88 1027.4
20260831141724 44 46 0.0 0.0 0.00 0.00 0.00 88 1027.3
20260831141224 44 46 0.0 0.0 0.00 0.00 0.00 88 1027.3
20260831140724 44 46 0.0 0.0 0.00 0.00 0.00 88 1027.3
20260831140224 45 46 0.0 0.0 0.00 0.00 0.00 88 1027.4
20260831135719 45 46 0.0 0.0 0.00 0.00 0.00 87 1027.4
20260831135213 45 46 0.0 0.0 0.00 0.00 0.00 88 1027.3
20260831134708 45 46 0.0 0.0 0.00 0.00 0.00 87 1027.3
20260831134424 45 46 0.0 0.0 0.00 0.00 0.00 87 1027.3
20260831134132 46 46 0.0 0.0 0.00 0.00 0.00 87 1027.3
20260831133149 46 46 0.0 0.0 0.00 0.00 0.00 86 1027.4
20260831132645 46 46 0.0 0.0 0.00 0.00 0.00 86 1027.5
20260831132137 46 46 0.0 0.0 0.00 0.00 0.00 86 1027.6
20260831131632 46 46 0.0 0.0 0.00 0.00 0.00 86 1027.6
20260831131125 47 46 0.0 0.0 0.00 0.00 0.00 86 1027.6
20260831130618 47 46 0.0 0.0 0.00 0.00 0.00 86 1027.7
20260831130113 47 46 0.0 0.0 0.00 0.00 0.00 85 1027.8
20260831125607 47 46 0.0 0.0 0.00 0.00 0.00 85 1027.9
20260831125102 47 46 0.0 0.0 0.00 0.00 0.00 85 1027.9
20260831124556 47 46 0.0 0.0 0.00 0.00 0.00 84 1028.0
20260831124053 47 46 0.0 0.0 0.00 0.00 0.00 84 1028.0
20260831123543 47 46 0.0 0.0 0.00 0.00 0.00 84 1028.0
20260831123041 48 46 0.0 0.0 0.00 0.00 0.00 83 1028.0
20260831122533 48 46 0.0 0.0 0.00 0.00 0.00 83 1028.1
20260831122026 48 46 0.0 0.0 0.00 0.00 0.00 82 1028.1
20260831121520 48 46 0.0 0.0 0.00 0.00 0.00 81 1028.1
20260831121458 48 46 0.0 0.0 0.00 0.00 0.00 80 1028.2
20260831120507 49 46 0.0 0.0 0.00 0.00 0.00 80 1028.2
20260831120001 49 46 0.0 0.0 0.00 0.00 0.00 77 1028.2
20260831115501 50 46 0.0 0.0 0.00 0.00 0.00 75 1028.2
20260831114958 50 46 0.0 0.0 0.00 0.00 0.00 75 1028.2
20260831114457 51 46 0.0 0.0 0.00 0.00 0.00 75 1028.2
20260831113955 51 46 0.0 0.0 0.00 0.00 0.00 75 1028.2
20260831113718 51 46 0.0 0.0 0.00 0.00 0.00 75 1028.2
20260831112954 51 46 0.0 0.0 0.00 0.00 0.00 75 1028.2
20260831112453 51 46 0.0 0.0 0.00 0.00 0.00 76 1028.2
20260831111951 51 46 0.0 0.0 0.00 0.00 0.00 77 1028.4
20260831111448 51 46 0.0 0.0 0.00 0.00 0.00 77 1028.4
20260831110949 51 46 0.0 0.0 0.00 0.00 0.00 77 1028.4
20260831110450 51 46 0.0 0.0 0.00 0.00 0.00 77 1028.2
20260831105948 51 46 0.0 0.0 0.00 0.00 0.00 77 1028.2
20260831105447 52 46 0.0 0.0 0.00 0.00 0.00 77 1028.2
20260831104947 52 46 0.0 0.0 0.00 0.00 0.00 76 1028.2
20260831104449 53 46 0.0 0.0 0.00 0.00 0.00 75 1028.4
20260831103952 53 46 0.0 0.0 0.00 0.00 0.00 75 1028.4
20260831103932 53 46 0.0 0.0 0.00 0.00 0.00 75 1028.4
20260831103433 54 46 0.0 0.0 0.00 0.00 0.00 74 1028.4
20260831102445 54 46 0.0 0.0 0.00 0.00 0.00 74 1028.2
20260831101946 55 46 0.0 0.0 0.00 0.00 0.00 73 1028.4
20260831101704 55 46 0.0 1.0 0.00 0.00 0.00 73 1028.2
20260831100943 55 64 0.0 2.0 0.00 0.00 0.00 73 1028.1
20260831100446 56 33 0.0 4.0 0.00 0.00 0.00 73 1028.1